Home   Weather   Quesnel   Past weeks

Flag for Canada Past Weather in Quesnel, British Columbia, Canada — Yesterday and Last 2 Weeks

Now
48 °F

Clear.


Feels Like: 48 °F
Forecast: 35 / 47 °F
Wind: 2 mph from North

Location: Quesnel Airport

Current Time: Sep 30, 2016 at 8:20:54 PM

Latest Report: Sep 30, 2016 at 7:00 PM


Visibility: 9 mi

Pressure: 29.96 "Hg

Humidity: 76%

Dew Point: 41 °F

Location of QuesnelLocation

Past Weather in Quesnel — Graph

°F

Quesnel Temperature Yesterday

Maximum temperature yesterday: 57 °F (at 4:00 PM)
Minimum temperature yesterday: 30 °F (at 2:00 AM)
Average temperature yesterday: 39 °F

High & Low Weather Summary for the Past Weeks

 TemperatureHumidityPressure
High70 °F (Sep 26, 4:00 PM)100% (Sep 16, 6:54 AM)30.37 "Hg (Sep 16, 6:54 AM)
Low30 °F (Sep 29, 2:00 AM)34% (Sep 22, 6:00 PM)29.58 "Hg (Sep 17, 4:00 PM)
Average48 °F85%30.08 "Hg
* Reported Sep 15 7:00 PM — Sep 30 7:00 PM, Quesnel, Weather by CustomWeather, © 2016

Note: Actual official high and low records may vary slightly from our data, if they occured in-between our weather recording intervals... More about our weather records

Advertising

Quesnel Weather History for the Previous 24 Hours

Scroll right to see more
 ConditionsComfort  
Time TempWeatherWind HumidityBarometerVisibility
7:00 PM
Fri, Sep 30
48 °FClear.2 mph76%29.96 "Hg9 mi
6:00 PM57 °FPassing clouds.6 mph55%29.95 "Hg9 mi
5:00 PM57 °FPassing clouds.5 mph55%29.96 "Hg9 mi
4:00 PM57 °FSunny.5 mph51%29.96 "Hg9 mi
3:00 PM57 °FSunny.3 mph55%29.99 "Hg9 mi
2:00 PM54 °FSunny.3 mph58%30.01 "Hg9 mi
1:00 PM50 °FSunny.2 mph62%30.05 "Hg8 mi
12:00 PM43 °FFog.2 mph81%30.09 "Hg2 mi
11:47 AM41 °FFog.3 mph93%30.09 "Hg1 mi
11:00 AM37 °FFog.3 mph93%30.11 "Hg1 mi
10:00 AM34 °FFog.2 mph100%30.12 "Hg1 mi
9:00 AM34 °FFog.2 mph93%30.13 "Hg0 mi
8:00 AM32 °FFog.2 mph100%30.13 "Hg1 mi
7:00 AM32 °FIce fog.2 mph93%30.12 "Hg0 mi
6:53 AM32 °FIce fog.2 mph93%30.11 "Hg0 mi
6:00 AM32 °FLow clouds.No wind100%30.11 "Hg9 mi
5:03 AM32 °FLow clouds.No wind100%30.10 "Hg7 mi
4:52 AM32 °FIce fog.No wind100%30.10 "Hg5 mi
4:00 AM34 °FPassing clouds.No wind93%30.11 "Hg9 mi
3:00 AM32 °FPassing clouds.3 mph100%30.12 "Hg8 mi
2:00 AM34 °FPassing clouds.No wind100%30.12 "Hg9 mi
1:00 AM34 °FPassing clouds.No wind93%30.12 "Hg9 mi
12:00 AM36 °FClear.2 mph93%30.13 "Hg9 mi
11:00 PM
Thu, Sep 29
39 °FPassing clouds.No wind93%30.14 "Hg9 mi
10:00 PM41 °FPassing clouds.No wind87%30.14 "Hg9 mi
9:00 PM43 °FPassing clouds.2 mph81%30.13 "Hg9 mi
8:00 PM45 °FClear.No wind81%30.13 "Hg9 mi
Weather by CustomWeather, © 2016

See weather overviewHow to use our weather pages